Weather History for Clarksville, TN

Change the Weather History Date:

Tuesday, November 19, 2013

  Actual Average Record
Temperature  
Mean Temperature 42 °F -  
Max Temperature 48 °F 61 °F 78 °F (1953)
Min Temperature 35 °F 37 °F 18 °F (1951)
Degree Days  
Heating Degree Days 24    
Moisture  
Dew Point 28 °F    
Average Humidity 61    
Maximum Humidity 76    
Minimum Humidity 41    
Precipitation  
Precipitation 0.00 in - - ()
Sea Level Pressure  
Sea Level Pressure 30.27 in    
Wind  
Wind Speed 8 mph (NE)    
Max Wind Speed 10 mph    
Max Gust Speed -    
Visibility 10 miles    
Events      
Averages and records for this station are not official NWS values.
T = Trace of Precipitation, MM = Missing Value Source: NWS Daily Summary

Daily Weather History Graph

Daily Weather History Graph

Search for Another Location

Airport:

Trip Planner

Search our weather history database for the weather conditions in past years. The results will help you decide how hot, cold, wet, or windy it might be!

Date:

Astronomy

Nov. 19, 2013 Rise Set
Actual Time 6:31 AM CST 4:38 PM CST
Civil Twilight 6:03 AM CST 5:05 PM CST
Nautical Twilight 5:32 AM CST 5:37 PM CST
Astronomical Twilight 5:01 AM CST 6:08 PM CST
Moon 6:29 PM CST (11/19) 8:10 AM CST (11/19)
Length of Visible Light 11h 01m
Length of Day
10h 06m
Waning Gibbous, 96% of the Moon is Illuminated
Nov 19
Waning Gibbous
Nov 25
Last Quarter
Dec 2
New
Dec 9
First Quarter
Dec 17
Full

Hourly Weather History & Observations

Time (CST) Temp. Windchill Dew Point Humidity Pressure Visibility Wind Dir Wind Speed Gust Speed Precip Events Conditions
12:52 AM 37.9 °F - 28.9 °F 70% 30.26 in 10.0 mi North - - N/A   Clear
1:52 AM 37.0 °F 31.6 °F 28.0 °F 70% 30.27 in 10.0 mi NNW 6.9 mph - N/A   Clear
2:52 AM 37.9 °F 32.1 °F 28.9 °F 70% 30.26 in 10.0 mi North 8.1 mph - N/A   Clear
3:52 AM 37.0 °F 31.6 °F 28.9 °F 73% 30.26 in 10.0 mi North 6.9 mph - N/A   Clear
4:52 AM 37.0 °F 29.8 °F 28.0 °F 70% 30.27 in 10.0 mi NNE 10.4 mph - N/A   Clear
5:52 AM 37.0 °F 31.0 °F 28.0 °F 70% 30.29 in 10.0 mi NNE 8.1 mph - N/A   Clear
6:52 AM 35.1 °F 29.3 °F 28.0 °F 76% 30.31 in 10.0 mi NNE 6.9 mph - N/A   Clear
7:52 AM 37.0 °F 31.0 °F 28.9 °F 73% 30.32 in 10.0 mi NNE 8.1 mph - N/A   Clear
8:52 AM 41.0 °F 34.7 °F 28.9 °F 62% 30.34 in 10.0 mi NE 10.4 mph - N/A   Clear
9:52 AM 44.1 °F 38.6 °F 30.9 °F 60% 30.32 in 10.0 mi NE 10.4 mph - N/A   Clear
10:52 AM 45.0 °F 40.1 °F 28.9 °F 53% 30.32 in 10.0 mi NE 9.2 mph - N/A   Clear
11:52 AM 46.9 °F - 30.0 °F 52% 30.29 in 10.0 mi NE 9.2 mph - N/A   Clear
12:52 PM 48.0 °F - 28.0 °F 46% 30.26 in 10.0 mi NE 6.9 mph - N/A   Clear
1:52 PM 48.0 °F - 26.1 °F 42% 30.25 in 10.0 mi NE 6.9 mph - N/A   Clear
2:52 PM 48.0 °F - 25.0 °F 41% 30.25 in 10.0 mi NNE 8.1 mph - N/A   Clear
3:52 PM 46.9 °F - 26.1 °F 44% 30.25 in 10.0 mi NE 5.8 mph - N/A   Clear
4:52 PM 45.0 °F 42.6 °F 27.0 °F 49% 30.26 in 10.0 mi NE 4.6 mph - N/A   Clear
5:52 PM 44.1 °F 40.8 °F 28.9 °F 55% 30.26 in 10.0 mi NNE 5.8 mph - N/A   Clear
6:52 PM 44.1 °F 39.0 °F 28.0 °F 53% 30.25 in 10.0 mi NE 9.2 mph - N/A   Clear
7:52 PM 42.1 °F 36.1 °F 28.9 °F 60% 30.23 in 10.0 mi NE 10.4 mph - N/A   Clear
8:52 PM 41.0 °F 37.1 °F 28.9 °F 62% 30.24 in 10.0 mi NE 5.8 mph - N/A   Clear
9:52 PM 39.0 °F 36.8 °F 28.0 °F 65% 30.24 in 10.0 mi ENE 3.5 mph - N/A   Clear
10:52 PM 36.0 °F 32.1 °F 28.0 °F 73% 30.23 in 10.0 mi ENE 4.6 mph - N/A   Clear
11:52 PM 35.1 °F 30.1 °F 28.0 °F 76% 30.22 in 10.0 mi ENE 5.8 mph - N/A   Clear